Tracking 31027 objects as of 19-Jul-2025
HD Live streaming from Space Station
objects crossing your sky now

BREEZE-M DEB

Track BREEZE-M DEB now!
10-day predictions


NORAD ID: 38884
Int'l Code: 2012-044R
Perigee: 269.4 km
Apogee: 3,480.4 km
Inclination: 50.0 °
Period: 124.2 minutes
Semi major axis: 8245 km
RCS: 0.2656 m2 (medium)
Launch date: August 6, 2012
Source: Commonwealth of Independent States (former USSR) (CIS)
Launch site: TYURATAM MISSILE AND SPACE COMPLEX (TTMTR)

Note: This is SATELLITE DEBRIS
Your satellite tracking list
DELTA 1 DEB
Track 1 satellite(s)




NASA's NSSDC Master Catalog

Two Line Element Set (TLE):
1 38884U 12044R   25199.70200505  .00012976  36827-5  30746-3 0  9996
2 38884  49.9924  70.4086 1947037 331.1305  19.4115 11.59427765503817
Source of the keplerian elements: AFSPC